Weather at Rockwall Municipal Airport

Public forecast

Using degrees Fahrenheit for public forecast. Weather courtesy of forecast.io.

Current aviation weather report (METAR) for Rockwall Municipal Airport

Retrieved UTC (0 seconds ago):

Closest aviation forecast (TAF) to Rockwall Municipal Airport

Closest forecast is Dallas Love Field, 21.6 nm (40.0 km) WSW. Retrieved 2022/08/13 18:22 UTC (28 minutes ago):

TAF KDAL 131720Z 1318/1418 11008KT P6SM SCT070 FM140900 16008KT P6SM FEW060